{"data":{"norad_id":55056,"intl_designator":"2023-001AZ","name":"VIGORIDE-5","alt_names":[],"object_type":"PAYLOAD","status":"ACTIVE","operator":null,"country":"US","launch_date":"2023-01-03","launch_site_code":"AFETR","launch_vehicle":null,"mission":null,"orbit_class":"UNKNOWN","rcs_meters":null,"size_class":null,"mass_kg":null,"dimensions":null,"purposes":[],"wikipedia_slug":null,"has_3d_model":false,"image_url":null,"decayed_at":null,"tle_current":{"epoch":"2026-09-21T17:32:49.139520Z","epoch_age_seconds":58798,"freshness":"FRESH","line1":"1 55056U 23001AZ  26264.73112430  .00080750  00000+0  62118-3 0  9998","line2":"2 55056  97.3124 340.1078 0006685 170.6304 189.5085 15.71747079207775","mean_motion":15.71747079,"eccentricity":0.0006685,"inclination_deg":97.3124,"raan_deg":340.1078,"arg_perigee_deg":170.6304,"mean_anomaly_deg":189.5085,"bstar":0.00062118,"rev_number":20777,"period_min":91.61779393388,"perigee_km":349.40333774916,"apogee_km":358.40407617436,"semimajor_km":6732.0407069618,"source":"CELESTRAK","updated_at":"2026-09-22T09:00:25.269054Z"}}}